This demonstration page uses our WeatherBlox Daily Observations layout. Learn more.

38.89511, -77.03637

Hourly Observations for December 13, 2016

Temp ( °F °C ) Dew Point ( °F °C ) Humidity (%) Winds ( mph kmh ) Pressure ( in mb ) Visibility ( mi km ) Precip ( " mm )
12:52 am 00:52 Mostly Cloudy 43 6.1 32 0 65 65 N 6 9 30.12 1020 10 16.0934 0 0
1:52 am 01:52 Mostly Cloudy 43 6.1 30 -1.1 60 60 NNW 8 13 30.14 1021 10 16.0934 0 0
2:52 am 02:52 Mostly Cloudy 40 4.4 29 -1.7 65 65 N 6 9 30.16 1021 10 16.0934 0 0
3:52 am 03:52 Cloudy 40 4.4 29 -1.7 65 65 N 6 9 30.18 1022 10 16.0934 0 0
4:52 am 04:52 Cloudy 41 5 30 -1.1 65 65 Calm 30.19 1022 10 16.0934 0 0
5:52 am 05:52 Cloudy 41 5 28 -2.2 60 60 Calm 30.2 1023 10 16.0934 0 0
6:52 am 06:52 Cloudy 40 4.4 31 -0.6 70 70 ENE 5 7 30.2 1023 10 16.0934 0 0
7:52 am 07:52 Cloudy 40 4.4 29 -1.7 65 65 E 6 9 30.19 1022 10 16.0934 0 0
8:52 am 08:52 Cloudy 41 5 28 -2.2 60 60 ESE 6 9 30.19 1022 10 16.0934 0 0
9:52 am 09:52 Cloudy 42 5.6 29 -1.7 60 60 E 5 7 30.18 1022 10 16.0934 0 0
10:52 am 10:52 Cloudy 44 6.7 32 0 63 63 S 9 15 30.2 1023 10 16.0934 0 0
11:52 am 11:52 Cloudy 44 6.7 32 0 63 63 S 6 9 30.19 1022 10 16.0934 0 0
12:52 pm 12:52 Cloudy 46 7.8 33 0.6 61 61 S 6 9 30.16 1021 10 16.0934 0 0
1:52 pm 13:52 Cloudy 46 7.8 32 0 58 58 SSE 5 7 30.14 1021 10 16.0934 0 0
2:52 pm 14:52 Cloudy 46 7.8 34 1.1 63 63 S 8 13 30.13 1020 10 16.0934 0 0
3:52 pm 15:52 Cloudy 45 7.2 34 1.1 66 66 S 7 11 30.12 1020 10 16.0934 0 0
4:52 pm 16:52 Cloudy 44 6.7 34 1.1 68 68 SSE 7 11 30.1 1019 10 16.0934 0 0
5:52 pm 17:52 Cloudy 44 6.7 32 0 63 63 SE 8 13 30.07 1018 10 16.0934 0 0
6:44 pm 18:44 Cloudy 43 6 32 0 66 66 SSE 6 9 30.06 1018 10 16.0934 0 0
6:52 pm 18:52 Cloudy 43 6.1 32 0 65 65 SSE 7 11 30.05 1018 10 16.0934 0 0
7:52 pm 19:52 Cloudy 43 6.1 32 0 65 65 S 7 11 30.04 1017 10 16.0934 0 0
8:52 pm 20:52 Cloudy 42 5.6 32 0 68 68 S 7 11 30.04 1017 10 16.0934 0 0
9:18 pm 21:18 Cloudy 43 6 34 1 71 71 S 6 9 30.03 1017 10 16.0934 0 0
9:23 pm 21:23 Cloudy 42 5.6 33 0.6 71 71 S 6 9 30.03 1017 10 16.0934 0 0
9:25 pm 21:25 Cloudy 42 5.6 33 0.6 71 71 S 6 9 30.03 1017 10 16.0934 0 0
9:52 pm 21:52 Cloudy 41 5 32 0 70 70 SSW 5 7 30.03 1017 10 16.0934 0 0
9:56 pm 21:56 Cloudy 43 6 32 0 66 66 S 3 6 30.03 1017 10 16.0934 0 0
10:06 pm 22:06 Cloudy 42 5.6 32 0 68 68 Calm 30.03 1017 10 16.0934 0 0
10:23 pm 22:23 Cloudy 42 5.6 32 0 68 68 Calm 30.03 1017 10 16.0934 0 0
10:28 pm 22:28 Cloudy 43 6 32 0 66 66 Calm 30.03 1017 10 16.0934 0 0
10:52 pm 22:52 Cloudy 42 5.6 32 0 68 68 SSE 3 6 30.03 1017 10 16.0934 0 0
11:44 pm 23:44 Mostly Cloudy 43 6 32 0 66 66 Calm 30.03 1017 10 16.0934 0 0
11:52 pm 23:52 Mostly Cloudy 42 5.6 32 0 68 68 Calm 30.02 1017 10 16.0934 0 0

Powered by AerisWeather